Regional Weather Roundup
Issued by NWS Charleston, SC

Current Version | Previous Version | Text Only | Print | Product List | Glossary Off
Versions: 1 2 3 4 5 6 7 8 9 10 11 12 13 14 15 16 17 18 19 20 21 22 23 24 25 26 27 28 29 30 31 32 33 34 35 36 37 38 39 40 41 42 43 44 45 46 47 48 49 50

000
ASUS42 KCHS 241125
RWRCHS

REGIONAL WEATHER ROUNDUP
NATIONAL WEATHER SERVICE CHARLESTON SC
700 AM EDT THU APR 24 2014

NOTE: "FAIR" INDICATES FEW OR NO CLOUDS BELOW 12,000 FEET WITH NO
SIGNIFICANT WEATHER AND/OR OBSTRUCTIONS TO VISIBILITY.

NOT ALL STATIONS ARE QUALITY CONTROLLED BY THE NATIONAL
WEATHER SERVICE. USE DATA WITH CAUTION...ESPECIALLY
DEWPOINT OBSERVATIONS.

SCZ027-030-031-034>040-042>050-241200-
...SOUTH CAROLINA...

CITY           SKY/WX    TMP DP  RH WIND       PRES   REMARKS
N CHARLESTON   CLEAR     57  51  80 N3        30.02R
WATERFRONT PRK   N/A     63 N/A N/A N7          N/A
FORT JOHNSON     N/A     64  55  72 E5        30.04R
MOUNT PLEASANT DRIZZLE   55  54  94 CALM      30.02R
JOHNS ISLAND   SUNNY     63  55  77 NE6       30.02R
PINOPOLIS        N/A     61  48  63 NE13      29.94R
MONCKS CORNER  FAIR      55  50  82 NE6       30.02R
SUMMERVILLE    NOT AVBL
BEAUFORT MCAS  CLEAR     61  57  87 E8        29.99R
BEAUFORT ARPT  FAIR      64  63  94 NE12      30.00R
HILTON HEAD IS CLEAR     63  63 100 NE6       29.98R
GEORGETOWN     NOT AVBL
WALTERBORO     SUNNY     55  48  76 CALM      30.03R
ORANGEBURG     CLEAR     54  37  52 NE7       30.04R
BARNWELL       FAIR      55  39  54 NE7       30.04R
AIKEN          FAIR      50  39  66 NE6       30.08R
MANNING        FAIR      54  43  66 NE6       30.06R
KINGSTREE      NOT AVBL
COLUMBIA       CLEAR     55  34  45 E5        30.05R
SUMTER         CLEAR     47  38  69 NE9       30.04R
FLORENCE       CLEAR     49  38  65 NE6       30.07R
MYRTLE BEACH   CLEAR     54  39  58 NE12      30.05R
N MYRTLE BEACH CLEAR     49  40  71 N7        30.06R

$$

GAZ063-065-086>088-099>101-113>116-118-119-134-136>141-150-241200-
...GEORGIA...

CITY           SKY/WX    TMP DP  RH WIND       PRES   REMARKS
SAVANNAH ARPT  CLEAR     56  52  86 CALM      29.98R
HUNTER AAF     CLEAR     56  55  97 CALM      29.96R
FORT STEWART   CLEAR     54  54 100 CALM      29.97R
STATESBORO     NOT AVBL
SYLVANIA       SUNNY     57  49  75 NE5       30.02R
CLAXTON        FAIR     N/A N/A N/A CALM      30.00R HAZE
THOMSON        CLEAR     53  41  62 E8        30.08R
AUGUSTA-BUSH   CLEAR     45  43  93 CALM      30.03R
AUGUSTA-DANIEL CLEAR     59  33  37 E12       30.03R
SWAINSBORO     FAIR      57  46  67 NE9       30.01R
VIDALIA        CLEAR     57  46  67 CALM      29.99R
ALMA           PTCLDY    57  55  93 CALM      29.97R FOG
WAYCROSS       NOT AVBL
JESUP          FAIR      55  55 100 N3        29.99R
BRUNSWICK      MOCLDY    59  59 100 CALM      29.98R VSB 1/2
SAINT SIMONS   CLEAR     62  60  93 CALM      29.96R FOG

$$

SCZ027-028-034-036>038-045-046-048>050-GAZ119-141-241200-
...LAKE AND SUPPLEMENTAL COASTAL OBSERVATIONS...

STATION/POSITION TIME  TEMP    WIND        PRES    WAVE   SWELL
                       AIR SEA DIR/SP/G            HT/PER HT/PER/DIR
                 (UTC) (F)     (DEG/KT/KT) (MB)    (FT/S) (FT/S/D)
UPR LAKE MARION  NOT AVBL
WINYAH BAY       1100   57      20/  7     1016.0S
LAKE MURRAY      1000   55      40/  3/  7 1016.9R
ACE BASIN NERRS  1100   60      50/  2     1015.0S
FORT PULASKI     1100   63 60  360/  2/  2 1015.4R
SAPELO ISLAND    1100   62        CALM     1014.0S

$$

ANZ835-935-AMZ111-154-330-350-352-354-374-450-454-472-241200-
...C-MAN AND BUOY OBSERVATIONS...

STATION/POSITION TIME  TEMP    WIND        PRES    WAVE   SWELL
                       AIR SEA DIR/SP/G            HT/PER HT/PER/DIR
                 (UTC) (F)     (DEG/KT/KT) (MB)    (FT/S) (FT/S/D)
FOLLY BEACH CMAN 1100   66      50/ 11/ 12 1016.3R
BUOY 41004       1100   71 70   70/ 14/ 16 1014.9R   2/ 4   2/ 8
BUOY 41008       1100   67 66  200/  4/  4 1014.4R   1/ 9   2/ 80/ 9
5E ST. MARYS GA  1100      68                N/A     1/ 9
FRYING PAN BUOY  1100   66 68   40/ 14/ 16 1016.2R   3/ 9   2/100/ 9
BUOY 41025       1100   55 74   10/ 21/ 25 1017.2R   6/ 6   2/ 40/12
CAPE LOOKOUT NC  1100   56      20/ 14/ 17 1017.9R
BUOY 41002       NOT AVBL
BUOY 41010       1100   73 75   CALM  /  2 1015.3R   2/ 8   2/ 80/ 8
BUOY 41012       NOT AVBL
ST AUGUSTINE FL  1100   65     270/  4/  5 1015.4R
CAPERS NEARSHORE NOT AVBL
FRIPP NEARSHORE  1000   65      70/ 10/ 12   N/A


$$



USA.gov is the U.S. government's official web portal to all federal, state and local government web resources and services.